This demonstration page uses our WeatherBlox Daily Observations layout. Learn more.

Left ArrowRight Arrow

47.50024, -111.30081

Hourly Observations for April 18, 2020

Temp ( °F °C ) Dew Point ( °F °C ) Humidity (%) Winds ( mph kmh ) Pressure ( in mb ) Visibility ( mi km ) Precip ( " mm )
12:53 am 00:53 Cloudy 43 6.1 23 -5 45 45 NW 5 7 29.79 1009 10 16 0.00 0.00
1:53 am 01:53 Cloudy 43 6.1 27 -2.8 53 53 NNE 12 19 29.82 1010 10 16 0.00 0.00
2:53 am 02:53 Cloudy 42 5.6 30 -1.1 62 62 ENE 8 13 29.83 1010 10 16 0.00 0.00
3:53 am 03:53 Cloudy 41 5 31 -0.6 67 67 E 6 9 29.84 1011 10 16 0.00 0.00
4:53 am 04:53 Cloudy 39 3.9 31 -0.6 73 73 Calm 29.88 1012 10 16 0.00 0.00
5:35 am 05:35 Cloudy with Light Rain 38 3.3 32 0 79 79 SW 3 6 29.93 1014 10 16 0.00 0.00
5:53 am 05:53 Cloudy with Light Rain 38 3.3 32 0 79 79 N 3 6 29.89 1012 10 16 0.00 0.00
6:53 am 06:53 Cloudy 38 3.3 33 0.6 83 83 N 6 9 29.90 1013 10 16 0.00 0.00
7:51 am 07:51 Cloudy 37 3 34 1 87 87 N 7 11 29.97 1015 10 16 0.00 0.00
7:53 am 07:53 Cloudy 38 3.3 34 1.1 86 86 N 7 11 29.94 1014 10 16 0.00 0.00
8:37 am 08:37 Cloudy with Light Rain 39 3.9 35 1.7 86 86 N 7 11 29.96 1015 10 16 0.01 0.25
8:53 am 08:53 Cloudy with Light Rain 38 3.3 34 1.1 86 86 N 9 15 29.98 1015 9 14 0.01 0.25
9:53 am 09:53 Cloudy with Light Rain 38 3.3 34 1.1 86 86 NNE 10 17 29.98 1015 9 14 0.02 0.51
10:53 am 10:53 Cloudy with Light Rain 38 3.3 34 1.1 86 86 NNE 10 17 29.99 1016 6 10 0.02 0.51
11:53 am 11:53 Cloudy with Light Rain 38 3.3 34 1.1 86 86 NE 9 15 30.01 1016 7 11 0.02 0.51
12:15 pm 12:15 Cloudy with Light Rain 39 3.9 35 1.7 86 86 ENE 8 13 30.00 1016 10 16 0.00 0.00
12:25 pm 12:25 Cloudy with Light Rain 40 4.4 35 1.7 83 83 NE 9 15 30.00 1016 10 16 0.00 0.00
12:37 pm 12:37 Cloudy 40 4.4 35 1.7 83 83 ENE 9 15 30.00 1016 10 16 0.00 0.00
12:39 pm 12:39 Cloudy 40 4.4 34 1.1 79 79 ENE 9 15 29.99 1015 10 16 0.00 0.00
12:53 pm 12:53 Cloudy 40 4.4 35 1.7 83 83 NE 6 9 30.01 1016 10 16 0.01 0.25
1:12 pm 13:12 Cloudy 41 5 34 1.1 76 76 NE 7 11 29.98 1015 10 16 0.00 0.00
1:53 pm 13:53 Cloudy 42 5.6 34 1.1 73 73 VRB 5 7 29.99 1016 10 16 0.00 0.00
2:20 pm 14:20 Cloudy with Light Rain 40 4.4 34 1.1 79 79 NNE 8 13 29.99 1015 8 13 0.00 0.00
2:38 pm 14:38 Cloudy with Light Rain 41 5 35 1.7 79 79 NE 9 15 29.99 1015 10 16 0.00 0.00
2:53 pm 14:53 Cloudy with Light Rain 40 4.4 35 1.7 83 83 NNE 12 19 30.01 1016 6 10 0.01 0.25
3:53 pm 15:53 Cloudy with Light Rain 40 4.4 36 2.2 86 86 E 8 13 30.00 1016 10 16 0.03 0.76
4:48 pm 16:48 Cloudy 39 4 36 2 87 87 ENE 10 17 29.99 1016 10 16 0.00 0.00
4:53 pm 16:53 Cloudy with Light Rain 39 3.9 35 1.7 86 86 ENE 12 19 30.01 1016 9 14 0.00 0.00
5:00 pm 17:00 Cloudy with Light Rain 39 3.9 35 1.7 86 86 ENE 9 15 29.99 1016 10 16 0.00 0.00
5:24 pm 17:24 Cloudy 40 4.4 35 1.7 83 83 ENE 8 13 29.98 1015 10 16 0.00 0.00
5:53 pm 17:53 Cloudy with Light Rain 40 4.4 34 1.1 79 79 NE 9 15 30.01 1016 10 16 0.01 0.25
6:01 pm 18:01 Cloudy with Light Rain 40 4.4 35 1.7 83 83 NE 10 17 29.99 1015 10 16 0.00 0.00
6:13 pm 18:13 Cloudy 40 4.4 35 1.7 83 83 ENE 12 19 29.99 1015 10 16 0.00 0.00
6:23 pm 18:23 Cloudy 39 3.9 35 1.7 86 86 ENE 9 15 29.99 1016 9 14 0.00 0.00
6:33 pm 18:33 Cloudy with Light Rain 39 3.9 34 1.1 82 82 ENE 9 15 29.99 1016 9 14 0.00 0.00
6:53 pm 18:53 Cloudy 39 3.9 34 1.1 82 82 ENE 8 13 30.01 1016 10 16 0.00 0.00
7:27 pm 19:27 Cloudy 39 3.9 34 1.1 82 82 ENE 12 19 29.99 1016 10 16 0.00 0.00
7:53 pm 19:53 Cloudy 39 3.9 33 0.6 79 79 E 9 15 30.00 1016 10 16 0.00 0.00
8:53 pm 20:53 Cloudy 38 3.3 32 0 79 79 E 7 11 30.02 1017 10 16 0.00 0.00
9:48 pm 21:48 Cloudy 37 3 32 0 81 81 E 12 19 30.02 1016 10 16 0.00 0.00
9:53 pm 21:53 Cloudy 37 2.8 32 0 82 82 E 13 20 30.03 1017 10 16 0.00 0.00
10:53 pm 22:53 Cloudy 36 2.2 31 -0.6 82 82 E 10 17 30.03 1017 10 16 0.00 0.00
11:42 pm 23:42 Cloudy 35 1.7 31 -0.6 85 85 E 8 13 30.02 1016 10 16 0.00 0.00
11:53 pm 23:53 Cloudy 35 1.7 31 -0.6 85 85 ENE 7 11 30.02 1017 10 16 0.00 0.00

Powered by AerisWeather